DELTA 2 R/B

Last updated on Wed Nov 05 2025 00:02:15 GMT+0000 (Coordinated Universal Time)

1 25876U 99041E 25308.11843151 .00000960 00000+0 19356-3 0 9994 2 25876 51.7634 82.5943 0504730 337.9496 20.0390 14.11262397345290
UTC large
Height (km)
Speed (km/s)
/
Latitude / Longitude
Inclination (degrees)
Orbital Period (minutes)
Azimuth
Elevation
Range (km)
Doppler Factor

Next 0 passes for location: London (51.5072 / 0.1276)

Sorry there are no passes over London.